Terminal Aerodrome Forecast
Issued by NWS

Home | Current Version | Previous Version | Text Only | Print | Product List | Glossary On
Versions: 1 2 3 4 5 6 7 8 9 10 11 12 13 14 15 16 17 18 19 20 21 22 23 24 25 26 27 28 29 30 31 32 33 34 35 36 37 38 39 40 41 42 43 44 45 46 47 48 49 50
000
FTPA31 PHFO 290700 AAB
TAFMDY
TAF AMD
PMDY 290707Z 2907/3006 18015G25KT P6SM VCSH SCT022 BKN050
      TEMPO 2907/2911 2SM SHRA BR SCT012 BKN020
     FM291300 21018G28KT 6SM -RA BR SCT022 OVC040
     FM292300 24015G25KT P6SM VCSH SCT030 BKN050
      AMD LTD TO CLD AND WIND=

USA.gov is the U.S. government's official web portal to all federal, state and local government web resources and services.